GEFSCGP_500_meanwind_198.txt.gz
Wind_Speed
8 9 8 8 8 9 9 9 8 7 7 7 7 7 8 8 8 7 7 8 8 9 9 9 9 9 9 8 8 8 7 6 6 6 6 5 5 4 3 3 3 3 2 2
8 8 8 8 8 8 9 9 9 8 7 6 7 8 8 9 9 8 8 8 9 9 9 10 9 9 9 9 9 8 8 7 7 7 6 6 5 5 4 4 4 3 3 3
8 8 8 8 8 8 8 8 8 8 7 7 7 8 8 9 9 9 9 8 8 9 9 9 9 9 9 9 9 9 8 8 8 8 7 6 6 5 5 5 4 4 4 4
9 9 8 7 7 7 7 7 7 7 7 6 7 7 8 8 9 10 9 9 9 9 9 10 10 10 10 10 10 10 9 8 8 9 8 8 7 6 6 6 5 5 5 5
9 9 8 7 6 7 7 7 7 7 7 6 6 7 7 7 8 8 9 9 10 10 9 10 11 11 10 10 10 10 10 9 9 9 9 9 8 8 7 7 6 6 6 5
9 9 8 7 6 7 7 8 7 7 7 7 6 7 6 6 7 8 8 9 10 10 10 10 11 11 11 11 11 10 10 10 10 9 9 9 9 8 8 8 7 7 6 6
10 10 9 8 7 8 8 8 8 8 8 7 7 8 7 6 7 8 8 9 9 10 10 11 12 12 12 12 12 11 11 11 11 10 9 9 9 9 9 9 8 7 7 7
11 11 10 9 8 8 7 8 8 8 7 7 8 8 7 7 7 7 9 9 9 10 11 11 12 12 12 13 13 13 12 11 11 11 10 10 9 10 9 9 9 8 8 8
11 11 10 10 9 8 8 8 8 10 9 9 9 9 7 7 8 8 9 9 10 10 11 11 11 12 12 13 13 13 13 12 12 11 11 10 10 10 10 10 10 9 9 9
12 12 11 10 10 10 10 10 10 10 11 11 10 10 9 8 9 9 10 10 10 11 12 12 12 12 12 13 13 13 13 13 13 12 12 11 11 11 10 10 10 10 9 9
12 13 13 13 11 10 11 11 11 12 12 12 11 10 10 9 9 9 10 10 10 12 13 13 12 13 13 13 13 14 14 13 13 12 12 12 11 11 11 10 10 10 10 10
14 13 13 13 12 11 11 11 12 12 12 13 12 10 10 10 10 9 9 10 10 11 12 14 14 14 14 14 14 14 15 14 14 13 13 12 11 11 11 11 11 11 11 11
15 14 14 15 14 14 13 12 13 12 12 12 12 11 10 11 10 9 9 9 9 10 11 13 13 14 14 15 14 15 15 15 15 15 14 13 13 12 12 12 12 12 12 13
16 16 15 14 14 14 14 13 13 14 13 12 12 11 11 11 10 10 10 10 10 10 11 12 13 13 14 15 14 14 15 15 14 14 14 14 14 13 13 13 13 14 14 14
18 17 16 16 16 16 16 15 14 14 14 14 12 12 11 11 11 11 11 11 11 11 11 12 13 13 14 14 14 14 14 14 14 14 14 14 14 14 14 14 14 14 14 14
20 19 18 17 17 18 17 16 15 15 14 14 13 12 11 12 12 11 11 11 11 11 11 12 13 13 14 14 14 14 14 15 15 14 14 15 15 15 14 14 15 14 14 15
21 20 19 18 18 20 19 17 16 16 15 14 14 12 12 12 11 11 11 11 11 11 11 11 12 13 14 14 14 14 14 14 14 15 15 15 15 15 15 14 14 14 15 15
22 22 21 20 20 22 18 17 16 16 15 15 15 14 13 12 12 11 11 11 12 12 12 11 11 12 13 14 14 14 15 15 15 15 15 15 15 14 14 14 14 14 15 15
23 22 22 23 22 21 19 18 17 17 16 15 15 15 14 13 13 12 12 12 12 13 13 13 13 13 13 13 14 14 14 15 16 16 16 16 15 15 15 15 15 15 15 16
25 24 23 24 23 22 19 18 18 19 17 15 15 15 15 14 14 12 13 13 14 14 14 14 14 14 14 14 14 15 15 16 16 16 16 16 16 16 16 16 16 16 16 16
26 25 25 25 24 22 19 19 19 20 17 16 16 16 16 15 14 14 13 14 14 15 15 15 15 15 15 16 16 15 15 16 16 16 16 17 17 17 17 17 17 17 16 16
27 26 26 25 25 23 20 19 19 19 18 17 17 17 17 16 16 15 15 15 15 15 15 16 16 16 16 16 16 16 16 16 17 17 17 17 17 17 17 17 17 17 17 17
27 26 26 25 24 22 21 19 19 19 18 17 17 18 18 18 17 16 16 16 16 16 16 16 16 16 16 16 16 16 16 17 17 17 17 17 17 17 17 17 17 17 17 17
27 27 25 25 24 23 21 20 20 19 19 18 18 18 18 18 17 17 17 17 17 17 17 17 17 17 16 17 17 17 17 17 18 18 18 18 17 17 17 17 17 18 18 18
28 27 26 25 24 24 23 22 22 21 20 20 19 20 20 19 19 18 18 18 19 19 18 18 17 17 17 17 17 17 17 18 18 19 19 19 18 18 18 18 18 19 20 20
29 28 28 27 26 25 24 24 23 21 21 21 21 21 21 21 20 19 19 19 19 19 19 19 18 18 18 18 18 18 18 19 20 20 19 19 19 19 19 19 19 20 21 21

GEFSCGP_500_meanwind_204.txt.gz
Wind_Speed
10 10 10 10 11 10 10 10 10 10 10 10 10 10 11 10 10 10 10 10 10 10 10 10 10 9 9 9 8 8 7 7 6 6 6 6 6 6 5 4 4 4 3 3
10 10 10 10 11 11 11 10 11 11 11 11 10 10 11 11 10 10 11 11 11 11 11 11 10 10 10 9 9 8 8 7 7 6 6 7 7 7 6 5 5 5 4 4
10 10 10 11 11 11 10 10 10 10 10 11 10 10 11 11 11 11 11 11 11 11 11 11 11 11 11 10 10 9 9 9 8 8 7 7 7 7 7 6 6 5 5 4
11 11 11 11 10 10 10 10 10 10 10 10 10 10 10 11 11 11 11 11 12 12 12 11 11 11 11 11 10 10 10 10 9 9 8 8 8 7 7 7 6 6 5 5
11 11 11 11 10 11 10 10 11 10 11 11 11 11 11 11 11 11 11 12 12 13 13 13 12 12 12 12 11 10 10 10 10 9 9 9 9 8 7 7 7 7 6 6
12 12 12 11 11 11 11 11 11 11 10 10 10 11 11 12 12 11 11 12 13 14 14 13 13 13 13 13 12 12 11 11 11 10 9 9 9 9 8 8 7 7 7 7
12 12 12 11 11 12 12 12 12 12 11 10 9 10 10 11 11 11 11 11 12 13 14 14 14 14 14 14 13 13 12 12 11 10 10 10 10 10 9 9 9 8 8 8
13 12 12 11 11 11 11 12 13 12 12 11 11 10 10 10 10 11 12 12 12 13 13 14 15 14 14 14 14 14 13 13 12 12 11 11 11 10 10 10 9 9 10 9
14 13 12 12 12 12 12 12 13 14 13 13 12 11 11 11 11 11 12 13 13 13 14 14 15 15 15 14 14 14 14 14 13 13 12 12 12 11 11 11 10 10 10 10
15 15 14 14 14 14 14 13 14 14 14 13 13 12 11 11 11 11 11 13 13 13 13 13 14 15 15 15 15 15 14 14 14 13 13 13 13 12 12 12 11 11 11 11
15 16 15 15 15 15 15 15 14 15 15 15 14 12 12 12 12 11 11 12 13 13 14 14 15 15 15 16 16 16 15 14 14 14 14 14 14 13 13 13 12 12 12 12
16 16 16 15 15 15 15 14 15 15 14 15 15 13 13 12 12 12 12 12 13 14 14 14 15 15 16 16 16 16 15 15 15 14 14 14 14 14 13 13 13 12 12 12
18 17 17 16 16 16 15 15 15 15 14 14 14 13 13 13 13 13 13 13 13 13 14 14 15 15 15 16 16 16 16 15 15 15 14 14 14 14 14 14 14 13 13 13
19 19 18 17 16 16 17 16 16 16 15 14 14 13 12 12 13 14 14 14 14 14 14 15 15 15 15 15 15 15 15 16 16 15 15 15 15 14 15 15 14 14 14 14
21 20 19 19 19 18 18 18 17 17 16 15 14 13 12 12 13 14 15 15 15 15 15 15 16 16 15 16 16 16 17 17 16 16 15 15 16 15 15 16 16 15 15 15
22 22 21 21 20 21 20 19 19 18 17 16 15 14 13 13 14 14 15 15 15 15 15 15 16 16 16 17 17 17 17 18 17 17 16 16 16 16 16 17 16 16 16 16
24 24 23 23 22 22 21 18 18 18 18 17 16 14 15 15 15 15 15 15 15 14 15 15 15 16 17 16 17 16 17 18 18 18 17 17 17 17 17 17 16 16 17 17
24 24 25 24 24 25 20 19 19 19 18 18 17 16 16 16 16 16 16 16 16 15 15 16 16 16 16 17 17 17 17 18 18 18 18 18 18 18 18 18 18 18 17 17
26 26 26 25 25 24 21 19 19 20 20 19 18 18 17 17 17 16 15 15 16 16 16 16 17 17 17 17 17 18 18 18 18 18 19 19 19 19 19 19 19 18 18 18
25 26 26 25 25 24 20 19 20 21 20 19 19 18 18 18 18 16 16 16 17 17 17 18 17 17 17 17 17 17 18 18 18 18 18 19 19 19 18 19 19 19 18 18
25 26 26 25 25 23 21 20 20 21 19 19 20 19 20 20 18 17 17 17 18 18 18 18 18 17 17 16 16 16 17 17 17 18 18 18 18 18 18 18 18 18 18 18
26 26 26 25 25 22 21 21 20 19 19 20 20 21 21 20 19 19 18 18 18 18 18 18 18 18 18 17 16 16 16 17 17 17 17 18 18 18 18 18 19 19 20 20
28 27 26 26 24 23 22 22 21 21 20 20 20 21 22 21 21 20 19 18 19 19 19 19 19 19 19 18 17 17 17 17 17 17 17 17 17 17 18 19 19 19 20 19
28 27 28 27 26 25 24 24 23 22 21 21 21 22 22 22 22 22 20 20 19 19 19 19 19 19 19 19 19 18 18 18 18 18 17 17 18 18 19 19 19 20 20 20
28 28 28 28 27 26 25 24 23 24 23 23 22 22 23 23 22 22 21 21 20 19 19 19 19 20 20 20 19 19 19 19 18 18 18 19 19 19 19 20 21 21 20 20
29 29 29 28 28 27 25 25 24 23 23 24 24 24 24 23 23 22 22 21 21 20 20 19 20 20 21 21 20 20 20 19 19 19 19 19 20 21 20 20 20 20 21 22

GEFSCGP_500_meanwind_210.txt.gz
Wind_Speed
9 10 10 9 10 10 10 11 11 11 10 10 11 11 11 10 11 11 10 10 10 11 11 11 11 10 10 10 10 10 10 9 9 8 8 7 7 6 6 6 5 4 4 4
10 10 10 10 10 10 10 11 10 11 11 11 10 11 11 11 11 10 10 10 11 11 11 11 11 11 10 10 10 10 10 10 9 9 8 8 7 7 6 6 6 5 5 5
11 11 11 11 11 11 11 11 10 10 11 11 11 11 11 11 11 11 10 10 10 11 11 11 11 12 11 11 11 10 10 10 10 10 9 8 8 7 7 7 6 6 5 5
12 12 12 12 12 11 11 11 11 10 11 11 11 11 11 11 11 11 11 10 11 11 11 11 12 12 12 12 12 12 11 11 10 10 10 9 8 8 7 7 6 6 5 5
12 12 12 12 12 11 11 11 10 10 11 11 11 11 10 10 10 10 11 11 11 12 12 12 12 12 12 13 12 12 11 11 11 11 11 10 10 9 8 8 7 6 5 6
12 12 12 12 12 11 11 11 11 11 11 12 11 11 11 11 10 10 11 11 12 13 13 12 12 12 12 13 13 13 12 12 12 12 12 12 11 11 10 9 8 8 7 7
12 13 12 12 12 12 11 11 11 11 12 12 11 12 11 11 11 10 11 11 13 13 13 13 13 13 13 13 13 13 13 13 13 12 12 12 12 12 11 10 10 9 9 9
13 13 14 13 13 12 12 12 12 12 12 12 12 12 11 11 11 11 11 12 13 13 13 13 14 13 14 14 14 14 14 14 14 13 12 12 12 12 12 11 11 10 10 10
14 14 14 14 14 13 13 13 13 13 13 13 13 12 12 11 11 12 12 12 13 13 14 14 14 15 15 15 15 15 15 15 15 14 13 13 13 13 13 12 11 11 10 10
16 16 15 14 14 14 14 14 14 14 14 14 14 13 13 13 12 12 13 13 13 13 13 14 15 15 15 15 15 16 16 16 15 15 14 13 13 13 13 13 12 12 11 12
16 17 16 16 15 15 15 15 15 14 15 14 14 14 13 13 13 13 14 14 14 13 14 14 15 15 15 16 16 15 16 16 16 15 15 14 14 14 14 13 13 13 13 13
16 17 17 17 16 16 16 16 15 15 15 15 14 14 13 13 13 13 14 14 14 14 14 15 15 15 15 16 16 16 16 16 16 16 16 16 15 15 15 14 14 14 14 14
17 18 18 18 17 18 17 17 16 15 15 15 14 13 12 12 13 13 14 14 14 13 13 14 15 15 15 16 16 16 17 17 17 17 17 16 16 16 16 15 15 14 14 14
20 20 20 19 18 18 19 19 18 17 17 16 15 14 13 12 12 13 14 14 14 14 14 13 14 15 15 15 16 16 17 17 17 17 17 16 16 16 16 15 15 15 15 15
21 21 21 21 21 20 20 20 19 19 17 17 16 15 14 14 14 14 14 15 15 15 16 15 14 14 16 16 16 17 17 17 17 17 18 17 16 17 16 16 15 15 15 15
22 22 22 22 22 21 22 21 20 20 19 18 17 16 15 15 15 15 15 15 15 15 15 15 15 15 15 17 17 18 18 18 18 18 18 18 18 17 17 16 15 16 16 15
22 22 22 23 22 23 23 21 20 20 20 19 18 16 16 16 16 16 15 15 15 15 15 16 15 15 15 15 16 17 18 19 20 19 19 18 17 17 17 17 16 16 16 16
23 22 22 23 24 25 23 22 22 21 20 20 19 18 18 18 17 17 17 17 17 16 16 16 16 16 15 15 16 17 18 18 18 18 19 19 18 18 18 17 17 17 17 17
24 24 23 23 25 25 24 22 22 23 22 21 20 19 19 19 18 18 18 17 17 17 17 16 16 16 16 16 16 17 18 18 18 18 19 19 19 19 19 19 19 19 18 17
26 25 25 25 26 26 24 23 22 23 22 21 21 20 20 20 20 19 19 19 18 17 17 17 16 16 16 16 16 17 18 18 18 19 19 19 20 20 20 20 20 19 19 18
26 26 26 26 26 25 24 24 23 24 23 22 22 21 21 22 21 20 20 20 19 18 18 18 17 17 16 16 17 17 16 16 17 18 18 19 19 19 19 19 19 19 19 19
26 26 26 26 26 24 24 24 24 23 23 23 23 22 22 23 22 21 21 21 20 19 19 19 18 18 17 17 17 18 17 17 17 17 17 18 19 19 19 19 19 18 18 19
27 26 26 26 25 24 24 23 23 23 23 23 23 23 23 23 23 22 22 22 22 21 20 20 19 19 19 18 18 18 19 19 19 18 18 18 18 19 19 19 18 18 18 18
28 28 27 27 26 25 24 24 23 22 22 22 23 23 23 23 23 23 23 22 22 21 21 20 20 20 20 20 19 19 19 19 20 20 19 18 18 19 18 18 18 18 18 19
27 28 27 27 26 26 25 25 24 23 23 23 23 23 23 22 22 22 23 22 22 21 21 21 21 21 21 20 21 21 20 20 20 20 20 19 19 19 19 18 18 18 18 18
27 27 27 27 27 27 26 26 25 24 24 24 23 23 24 23 23 22 22 21 21 21 22 22 21 22 21 21 20 21 21 21 21 20 20 20 19 19 19 19 19 19 19 20

GEFSCGP_500_meanwind_216.txt.gz
Wind_Speed
8 9 9 9 9 9 9 10 11 10 10 10 11 11 10 10 11 11 12 12 11 11 11 11 10 10 10 10 9 9 9 9 9 9 8 7 7 6 7 6 5 5 5 5
9 10 10 10 10 10 10 11 12 11 11 11 11 12 12 11 11 11 11 12 12 12 11 11 11 10 10 10 10 9 10 9 9 9 8 7 7 7 7 6 6 5 5 6
11 11 11 11 12 12 11 11 11 11 12 12 12 12 12 12 12 12 12 12 12 12 11 11 11 10 10 10 10 9 10 10 9 9 8 8 8 7 7 7 7 6 6 6
12 12 13 13 13 13 13 11 10 10 12 11 12 12 12 12 12 12 12 12 12 11 11 11 11 11 11 11 11 10 10 10 10 9 9 8 8 8 8 8 7 7 7 6
12 13 14 14 13 13 12 11 10 11 12 12 12 13 13 13 12 12 13 13 13 12 11 11 11 11 11 11 11 11 11 11 10 10 10 9 10 10 9 8 8 8 8 7
12 13 14 14 13 13 12 12 12 11 12 12 11 13 14 13 13 12 13 13 13 13 12 12 12 11 12 12 12 11 11 11 11 11 11 11 11 11 10 9 9 9 8 8
12 13 13 14 14 14 13 12 12 11 11 13 12 14 15 13 13 13 13 13 14 13 13 13 12 12 12 12 12 12 12 12 12 12 12 12 12 11 11 10 10 9 9 9
13 13 13 15 15 14 14 13 12 11 11 14 14 15 15 14 14 14 13 13 13 13 13 13 13 13 13 13 13 13 13 13 13 13 13 12 12 12 12 11 11 11 10 10
14 15 14 15 15 15 14 15 14 14 13 13 14 15 15 14 15 14 14 13 13 13 13 13 13 13 13 13 13 13 14 14 14 14 14 13 13 13 12 12 12 12 12 11
16 17 15 15 16 16 15 14 14 14 14 13 14 15 14 14 15 14 14 14 14 14 13 13 14 14 14 13 14 13 14 15 15 15 15 14 13 13 13 13 13 13 12 12
17 17 16 16 16 16 16 16 15 15 16 15 14 15 15 15 16 15 15 15 14 14 14 14 14 14 14 14 14 14 15 15 15 15 16 16 15 14 14 14 14 13 13 13
18 18 18 17 17 17 17 17 17 17 16 16 17 17 16 16 16 16 16 15 15 15 15 15 15 14 14 15 15 14 15 15 15 15 16 16 16 16 15 15 15 14 14 14
19 19 19 19 18 18 18 18 18 18 18 17 18 18 18 17 17 17 17 17 16 17 16 15 15 15 14 15 15 15 15 15 16 16 16 17 17 17 16 16 15 15 15 15
20 20 20 20 19 19 19 20 19 20 20 19 19 18 18 18 18 18 17 17 17 17 16 16 16 15 15 15 15 15 15 16 16 16 16 17 17 17 17 17 16 16 16 16
21 22 21 21 21 22 22 21 21 21 21 20 19 19 19 20 19 18 18 17 17 17 17 16 16 16 16 16 16 16 16 16 16 16 17 16 16 17 17 17 17 17 17 16
22 23 22 23 22 23 23 22 22 22 22 21 20 20 20 21 20 19 18 18 18 18 18 17 17 17 16 16 16 17 17 17 17 16 16 17 17 17 17 17 17 18 17 17
22 22 23 23 23 23 24 23 24 24 23 22 21 20 21 21 20 20 20 20 19 19 19 18 17 17 17 16 17 17 17 17 17 17 17 17 18 18 18 18 19 19 18 18
23 23 24 23 24 25 24 23 23 24 24 23 22 21 21 21 21 20 20 20 20 20 19 19 18 17 17 17 17 17 17 17 18 18 17 18 18 19 19 19 20 20 19 19
23 24 24 25 26 26 25 24 23 23 24 23 23 22 22 22 21 21 20 20 20 20 20 19 18 18 17 17 17 16 17 17 17 18 18 18 18 19 19 19 19 19 19 19
24 24 24 25 25 26 25 24 24 24 24 23 23 23 23 22 23 21 21 21 21 20 20 20 19 18 18 18 17 17 17 17 18 18 19 19 19 19 19 18 18 19 19 19
25 26 26 26 26 26 24 22 23 25 23 23 24 24 24 23 23 22 23 23 22 21 21 20 20 19 19 19 19 19 19 18 18 18 17 18 18 18 18 18 18 19 19 19
26 26 26 26 27 27 25 23 23 24 24 25 25 24 24 24 24 24 24 23 22 22 21 21 20 20 20 20 20 20 20 19 19 19 19 19 19 19 19 19 18 18 18 18
27 27 26 26 27 27 26 25 25 26 26 25 25 24 24 25 24 24 24 24 24 23 23 22 21 21 21 21 21 21 20 20 20 20 20 20 20 20 19 19 19 20 20 19
27 27 27 27 28 28 26 26 26 27 27 26 25 25 24 24 24 24 24 24 24 24 23 23 23 22 21 21 21 21 21 21 20 20 21 21 21 21 21 21 20 20 20 20
28 29 29 29 28 28 27 26 27 28 28 27 27 26 25 25 25 25 25 24 24 24 24 23 23 23 22 22 22 21 21 21 20 20 21 21 22 22 22 22 21 21 21 22
28 29 30 30 30 30 29 28 28 28 28 27 27 27 26 26 25 25 25 24 24 24 24 24 24 24 23 23 22 22 22 21 21 21 20 21 21 21 22 22 22 23 23 23

GEFSCGP_500_meanwind_222.txt.gz
Wind_Speed
8 8 7 7 8 9 8 8 8 8 8 8 9 8 8 8 8 8 8 9 9 9 8 8 8 8 8 8 8 8 8 8 8 8 7 7 7 7 6 5 5 5 5 4
9 9 8 8 8 8 8 9 8 8 8 9 8 8 9 9 8 8 8 8 8 9 9 8 8 9 9 8 8 9 9 9 8 8 7 8 7 7 7 6 6 5 5 4
9 9 9 9 9 10 9 9 9 9 9 9 9 10 9 9 9 9 9 8 8 9 9 9 9 9 9 9 9 9 9 9 8 8 8 8 8 8 7 6 6 6 6 6
10 10 10 10 10 11 10 10 10 10 10 10 10 10 9 9 9 9 8 8 8 8 8 9 9 9 9 8 8 9 9 9 8 8 8 9 9 8 8 7 7 7 7 7
10 10 11 11 10 11 11 11 11 11 12 12 11 11 10 9 9 8 8 8 8 8 9 9 9 9 9 9 9 9 9 9 9 9 9 10 10 10 9 8 8 8 8 8
11 11 11 12 11 11 12 12 12 12 13 13 12 12 10 8 8 9 9 8 8 8 8 8 9 9 9 10 10 10 10 11 10 10 10 11 11 10 10 9 9 9 9 9
11 12 12 12 12 12 12 13 13 13 14 13 12 13 10 9 9 9 9 9 8 9 8 9 9 9 10 10 11 11 11 11 11 11 11 11 12 11 10 10 10 10 9 9
12 11 11 12 12 12 12 13 14 14 13 13 13 13 11 10 9 9 9 9 9 9 9 9 9 9 10 10 11 11 12 12 12 11 11 11 11 11 11 11 11 10 10 10
12 12 12 13 13 14 14 14 15 15 15 15 15 14 12 11 10 9 9 10 10 9 10 10 10 10 11 11 11 11 11 12 12 12 12 12 11 11 12 11 11 11 10 10
14 14 13 13 14 15 15 15 16 17 16 16 15 14 13 11 11 10 10 9 9 9 10 11 11 11 11 11 11 12 12 12 12 13 12 13 12 12 12 12 12 12 12 11
15 16 14 14 14 15 15 16 18 18 19 18 18 16 14 12 12 11 10 10 10 9 10 12 12 12 11 12 12 13 12 12 12 13 13 13 14 14 14 13 13 13 12 12
16 17 16 15 15 16 17 18 18 19 19 20 19 16 15 14 13 13 12 11 11 10 11 12 12 12 12 13 13 13 13 13 13 14 14 14 14 14 14 14 14 13 13 12
18 18 18 18 17 16 17 18 19 19 20 20 19 16 15 15 14 13 13 12 12 11 12 12 12 12 13 14 14 15 15 15 15 15 15 15 14 14 14 15 15 14 14 13
19 20 19 19 19 17 17 18 19 20 21 20 19 18 17 16 15 15 14 14 14 13 13 13 13 14 14 14 14 15 16 15 16 15 15 15 15 15 15 14 15 14 14 14
21 21 21 20 20 20 19 19 19 20 21 21 19 19 17 17 16 16 16 15 14 14 14 13 13 14 14 14 15 15 16 16 16 16 15 15 15 15 15 15 15 15 15 15
21 22 21 21 22 22 21 20 20 21 21 21 20 20 18 18 17 17 16 16 15 14 14 14 14 14 15 15 15 15 16 16 16 16 16 16 16 16 16 16 16 16 16 16
23 23 22 22 22 23 22 20 20 21 20 20 20 19 19 19 19 18 18 18 17 16 16 16 16 15 15 15 15 16 16 17 17 17 17 17 17 17 17 17 17 17 17 17
22 23 23 23 23 24 20 19 20 20 21 21 20 19 19 19 19 19 19 19 18 17 17 18 18 17 16 16 16 16 17 17 17 17 17 17 17 17 17 18 18 18 18 18
22 23 23 23 24 23 21 20 20 21 21 21 20 19 20 19 20 20 19 19 19 18 18 19 18 18 17 17 17 17 17 17 17 16 16 17 17 18 18 19 19 20 19 18
22 23 23 23 24 24 21 21 20 21 21 20 20 19 20 19 20 19 19 19 19 19 19 20 19 19 19 18 18 18 18 18 17 17 17 18 18 19 19 19 19 19 19 19
23 23 24 24 24 23 23 22 21 21 20 21 21 21 21 21 20 20 20 20 20 20 20 20 21 20 20 20 19 19 19 19 19 19 19 19 18 18 18 19 19 20 20 19
24 24 24 24 25 23 23 24 23 22 21 21 21 22 21 21 21 21 20 20 21 21 21 21 21 20 21 22 21 20 20 20 20 20 19 19 19 19 19 18 19 19 20 20
25 25 24 24 24 24 24 25 25 23 23 23 22 22 22 22 21 21 21 22 22 22 21 21 21 20 21 21 21 21 21 21 21 21 21 20 20 19 19 19 19 19 19 20
27 26 26 26 26 26 26 26 26 25 25 24 24 24 23 23 22 23 23 22 22 22 22 21 21 20 21 22 22 22 22 21 21 21 21 21 21 20 20 20 20 19 19 20
27 27 27 27 27 28 28 28 27 26 25 25 25 25 25 24 24 23 23 22 21 21 22 22 22 21 21 21 22 22 22 22 21 21 21 22 21 21 21 21 21 21 21 20
26 27 28 27 27 28 28 28 27 27 26 26 26 26 25 26 25 23 23 23 22 22 22 22 21 22 22 21 21 22 22 22 22 21 21 22 22 22 22 22 22 22 22 21

GEFSCGP_500_meanwind_228.txt.gz
Wind_Speed
7 8 8 9 10 10 9 8 8 9 9 10 10 10 10 10 10 9 9 10 10 10 10 10 10 10 11 10 10 9 10 10 10 10 10 10 9 9 8 7 7 6 6 6
9 8 9 10 10 10 10 9 9 10 10 11 11 11 11 11 11 11 10 10 10 10 10 10 10 10 10 10 10 10 11 11 11 10 10 10 10 10 9 8 8 7 7 7
9 9 9 10 10 10 10 10 10 11 11 11 11 12 11 12 12 11 11 11 11 11 11 11 10 11 11 11 11 11 11 11 11 10 10 10 10 10 10 8 8 8 8 7
10 10 10 10 11 11 11 11 11 12 12 12 11 12 11 11 12 12 12 12 11 12 12 11 11 11 11 11 11 11 11 12 12 11 11 11 11 10 10 9 9 8 8 8
11 11 11 11 11 12 12 13 13 13 13 12 11 12 11 11 12 12 12 11 11 12 12 11 11 11 11 11 12 12 12 12 12 12 12 12 12 11 11 10 10 9 9 9
12 12 12 12 13 13 14 14 14 14 14 13 12 13 12 11 12 12 12 12 11 12 12 11 11 11 11 11 12 12 12 12 12 12 12 12 12 11 11 11 11 10 10 10
13 13 13 13 14 14 14 14 15 14 14 14 13 14 13 12 13 13 13 12 12 12 12 12 12 11 11 11 11 11 12 12 12 12 12 11 11 11 11 12 11 11 11 10
15 14 14 14 14 14 14 15 15 15 15 14 14 14 13 13 13 13 13 13 14 14 13 13 13 12 12 12 11 11 12 12 11 11 11 11 11 12 12 12 12 11 11 11
15 15 15 15 14 15 15 15 15 15 15 15 15 14 13 13 13 13 14 14 14 14 14 14 13 13 13 13 13 13 13 13 11 11 11 11 12 12 11 11 12 12 11 11
16 15 15 15 15 15 16 16 16 16 16 16 15 14 13 14 14 14 14 14 15 15 15 14 14 14 13 14 14 13 13 13 13 12 12 12 12 12 11 11 12 12 12 11
17 17 16 16 16 16 17 17 17 17 18 18 17 15 14 14 15 15 15 15 15 14 15 15 15 15 15 15 15 14 14 13 13 13 12 12 12 12 12 12 12 12 12 11
18 18 18 17 16 17 17 18 19 19 19 19 19 17 16 16 16 15 15 15 15 15 15 16 16 16 15 15 15 15 15 14 14 14 13 13 12 13 13 12 12 13 13 13
19 19 19 19 19 18 19 19 19 20 20 19 19 17 16 16 16 16 16 16 16 16 16 16 16 16 16 15 15 15 15 15 15 14 14 14 14 14 14 13 13 14 15 15
21 21 21 20 20 19 20 19 19 20 21 20 19 18 17 17 17 17 17 17 16 16 16 16 16 16 16 16 16 15 15 15 15 15 15 15 15 15 15 15 14 15 15 15
23 22 21 21 21 21 21 21 21 22 22 22 20 19 18 19 19 19 18 18 18 17 17 16 17 17 16 16 16 16 15 15 15 15 16 16 16 16 15 15 15 16 16 15
23 23 22 22 22 22 23 23 23 23 23 22 21 21 20 20 20 19 19 19 19 18 18 17 17 17 16 16 16 16 16 16 16 16 17 17 17 17 17 16 17 17 17 17
22 22 23 22 22 23 24 23 23 23 22 22 22 20 20 21 20 20 20 20 19 19 19 18 17 17 17 16 17 17 17 17 17 17 18 18 18 18 19 18 18 18 19 19
23 23 23 23 23 24 22 22 22 23 23 23 22 21 21 20 21 21 21 20 20 20 19 19 19 18 18 18 18 18 18 18 18 19 19 19 19 19 20 20 19 19 20 20
24 24 24 24 24 24 22 21 22 22 22 23 23 22 21 21 22 21 21 21 21 20 19 19 19 19 19 19 19 19 19 19 19 19 20 20 20 19 19 18 19 20 20 20
25 25 25 25 25 24 22 21 21 23 23 22 23 23 22 22 22 21 21 22 22 21 20 20 20 20 20 20 20 20 20 19 19 19 19 20 19 19 20 20 20 20 20 20
25 25 26 26 26 25 23 22 23 24 23 23 24 24 24 24 23 22 23 23 23 22 21 21 21 21 21 21 21 21 20 20 20 20 20 21 21 21 21 21 21 20 20 20
26 26 26 27 27 25 25 24 24 24 25 24 24 25 25 25 24 23 23 23 22 22 22 22 21 21 22 22 22 22 22 21 21 22 22 22 22 21 22 22 22 22 21 21
28 27 27 27 27 27 26 26 25 25 25 25 24 25 25 25 24 24 24 24 24 24 23 23 23 22 22 23 23 23 23 22 23 23 23 23 23 23 22 23 23 23 22 22
29 29 28 28 27 27 27 27 27 26 26 26 26 26 26 26 26 25 25 25 25 25 25 24 24 24 24 24 24 23 23 23 23 23 23 23 23 23 23 23 23 24 23 23
28 29 29 28 27 28 28 28 28 28 28 28 27 28 27 27 27 27 26 26 26 26 26 25 25 25 25 25 24 24 24 24 23 23 23 23 24 23 24 24 24 24 24 24
28 28 29 29 29 29 29 30 30 29 28 28 28 27 27 26 27 27 26 26 26 26 25 25 25 25 25 25 25 25 25 25 25 24 24 23 23 23 23 23 24 24 24 24

GEFSCGP_500_meanwind_234.txt.gz
Wind_Speed
6 7 7 7 8 8 8 8 7 8 7 8 8 9 9 9 9 9 9 9 9 9 10 10 10 11 11 11 11 11 12 12 11 10 10 10 10 9 9 9 9 9 8 7
7 7 7 8 8 8 9 8 8 8 8 8 9 8 8 9 9 9 9 9 9 10 10 11 12 12 12 12 12 12 12 11 11 11 10 10 10 10 10 9 9 9 8 8
9 8 8 7 8 8 8 9 9 9 9 9 9 9 9 10 10 9 10 11 11 11 11 11 12 12 13 12 12 13 12 11 11 11 11 11 11 11 11 10 10 10 9 9
10 9 8 8 8 9 9 9 10 10 10 10 10 11 11 11 10 11 11 12 12 11 11 11 12 12 12 12 12 12 13 12 11 11 11 11 11 11 12 11 10 10 10 9
10 10 9 9 9 9 10 10 10 10 10 11 11 11 10 10 11 11 12 12 13 13 13 12 12 12 12 12 11 12 12 12 11 11 11 11 11 11 12 11 11 11 9 9
11 10 10 10 10 10 10 10 10 10 11 11 11 11 11 10 11 12 12 13 13 13 13 13 13 13 13 12 12 12 13 12 12 12 12 12 12 12 12 11 11 10 10 9
12 11 11 11 10 11 11 11 11 11 11 12 11 12 12 12 11 12 12 13 13 13 13 13 13 13 13 13 13 12 12 12 12 12 13 12 12 13 12 11 10 10 10 9
13 13 13 12 12 12 12 12 12 12 12 12 12 12 12 12 12 12 12 13 13 13 13 13 13 13 13 13 14 14 13 12 12 13 13 13 12 12 12 11 10 10 9 9
14 14 14 14 14 14 13 13 13 13 13 13 14 13 13 13 13 13 13 13 14 14 14 15 14 14 14 14 14 14 14 14 13 13 13 13 13 13 12 12 11 11 10 10
15 15 15 15 15 15 15 14 14 14 14 14 14 14 13 13 14 14 14 14 15 15 15 15 15 15 15 15 15 15 15 14 14 14 14 14 14 13 13 13 13 12 12 12
16 16 16 15 15 15 15 16 15 15 15 14 14 14 13 14 14 14 14 15 15 15 15 15 16 16 16 15 15 15 15 15 15 14 14 14 14 15 15 14 13 13 13 13
17 17 17 16 16 17 17 16 16 16 16 15 15 15 15 15 15 15 15 15 15 15 16 16 15 15 15 15 15 15 15 15 15 15 15 14 14 15 15 14 14 14 14 14
18 19 19 19 18 18 18 18 17 17 18 17 17 17 16 16 16 16 15 16 16 16 17 17 16 16 16 16 16 16 16 16 16 16 16 16 16 16 15 15 15 15 15 15
20 21 21 21 20 20 19 20 19 19 19 18 17 17 18 17 16 16 17 17 16 16 17 18 18 18 18 17 17 17 17 17 16 16 17 17 17 16 16 16 16 16 16 16
21 21 21 21 21 21 21 21 20 20 19 19 18 18 18 19 19 18 19 19 19 18 18 18 18 19 19 19 19 18 18 18 17 17 17 17 17 17 16 16 17 17 17 17
21 21 21 21 21 21 22 21 21 21 20 20 20 20 19 20 20 20 20 20 20 20 20 20 20 20 20 19 19 19 19 19 19 19 18 18 18 17 18 18 18 18 18 18
21 22 22 22 21 22 23 22 21 21 21 21 21 20 20 21 21 22 22 22 21 21 22 22 22 21 21 21 21 20 20 21 20 20 19 18 18 19 19 19 19 19 19 19
22 22 23 22 22 24 22 21 21 21 21 21 22 21 21 22 22 22 23 22 22 22 22 22 22 22 23 21 21 21 22 22 21 20 20 19 19 19 19 19 19 19 20 20
23 22 23 23 24 24 23 22 22 22 22 22 22 22 22 23 23 23 23 23 23 23 23 23 23 23 23 22 22 22 22 22 22 21 20 19 19 19 19 18 18 19 19 20
23 23 24 25 25 25 24 23 23 24 24 22 23 23 23 24 24 23 23 24 24 24 24 23 23 24 24 24 23 23 22 21 21 21 20 19 19 19 20 19 19 19 20 20
24 24 24 25 25 25 24 24 23 24 24 24 24 24 24 24 24 24 24 24 25 25 25 24 24 24 24 24 23 22 21 21 21 21 20 20 20 19 19 19 19 20 20 20
24 25 25 26 27 26 25 25 25 25 26 26 25 25 25 24 24 25 25 26 26 26 25 25 24 25 25 24 24 23 22 22 22 21 21 21 21 20 20 20 20 20 20 20
25 25 26 27 27 27 26 26 26 26 27 27 27 27 26 25 25 25 26 26 27 26 26 25 24 24 24 24 24 24 23 23 23 22 22 22 22 21 21 21 20 20 20 21
26 26 27 27 27 27 27 27 27 27 27 27 27 27 27 26 26 26 25 26 27 27 27 25 25 25 24 24 24 25 24 23 23 23 23 23 22 22 22 22 21 21 21 21
26 27 27 27 27 28 28 28 28 28 28 27 27 28 27 27 26 26 25 26 27 27 27 26 26 25 25 25 25 25 25 25 24 24 24 24 24 23 22 22 22 22 22 22
27 28 28 28 27 28 28 29 29 29 28 28 28 28 27 27 27 27 26 26 26 26 27 26 26 26 26 26 26 26 26 26 25 25 24 24 24 24 24 24 23 23 24 24

GEFSCGP_500_meanwind_240.txt.gz
Wind_Speed
7 7 7 8 8 8 8 8 9 9 8 9 8 9 9 9 9 9 9 9 9 9 9 9 10 10 10 11 10 10 11 11 11 10 10 10 11 10 10 10 10 10 10 9
8 7 8 8 8 8 9 9 10 9 8 9 9 9 10 9 9 9 9 9 10 10 10 9 10 11 11 12 11 11 11 12 11 10 10 10 11 11 10 11 10 9 9 9
9 8 8 8 8 8 9 9 9 9 9 9 9 10 9 10 10 11 11 10 10 10 11 10 11 11 11 12 12 12 12 12 12 11 11 11 11 11 11 11 10 9 9 9
10 9 8 9 9 9 9 9 9 9 9 9 10 11 10 10 11 11 12 12 12 12 12 12 12 12 12 12 12 12 12 12 13 12 12 12 12 11 11 10 10 9 9 9
10 10 10 10 9 10 9 9 9 10 10 10 11 12 12 12 11 12 12 13 13 13 13 13 13 13 13 13 12 13 12 12 13 13 12 12 12 12 12 11 10 10 10 9
10 11 11 10 10 10 10 10 10 10 10 10 10 12 13 13 13 13 13 13 14 14 14 14 14 14 13 13 13 13 13 13 13 13 13 12 12 12 11 11 10 10 10 9
11 12 11 11 11 11 11 11 10 10 10 10 12 13 14 13 14 14 14 15 15 15 15 14 14 14 14 14 14 13 13 13 13 13 12 12 12 12 11 11 11 10 10 10
12 12 12 13 13 13 12 12 11 10 9 10 13 14 14 14 15 15 15 15 15 16 16 15 15 15 15 14 14 14 14 13 13 13 13 13 13 12 12 12 11 11 11 10
13 14 14 14 14 14 14 14 13 13 12 11 14 16 16 16 16 16 15 15 16 16 16 16 16 16 16 15 14 14 14 14 14 14 14 14 13 13 13 12 13 12 11 12
15 15 15 15 16 16 15 15 14 15 14 14 14 15 18 17 17 17 17 16 17 17 17 17 17 16 16 15 15 15 15 15 15 15 15 15 15 14 14 14 13 13 12 13
17 17 17 16 16 16 16 17 17 17 16 16 15 16 18 19 18 17 18 18 18 18 18 17 17 17 16 15 15 15 15 15 15 15 15 15 16 16 15 14 14 14 14 14
17 18 18 18 17 17 18 18 18 18 17 17 17 18 19 20 20 19 18 18 18 18 18 18 18 18 17 17 17 16 16 16 15 15 15 16 16 16 16 16 16 16 15 15
18 19 18 19 19 18 18 18 18 18 19 19 19 20 20 21 21 19 19 19 18 18 18 19 19 19 19 18 18 18 17 17 17 17 16 16 17 17 17 17 17 17 16 16
21 21 20 20 19 18 18 19 19 20 20 20 20 20 22 22 21 20 20 19 19 18 19 19 19 20 20 20 19 19 18 18 18 18 18 18 18 18 18 17 18 18 18 18
23 23 22 22 22 21 21 20 20 21 22 22 21 21 22 23 23 22 22 21 20 20 20 21 21 21 21 21 20 20 20 20 19 19 19 19 18 19 19 18 19 19 19 19
24 24 24 23 23 23 23 22 22 23 23 24 23 22 22 24 24 23 23 23 22 21 22 22 23 23 22 22 21 21 21 21 20 20 20 20 19 19 19 19 19 19 19 20
24 24 25 24 24 25 25 23 24 24 24 24 24 24 23 24 24 24 25 25 25 24 23 23 23 24 24 23 23 22 22 23 22 22 22 22 21 20 20 20 20 20 20 20
25 25 26 26 25 27 26 24 25 26 26 25 25 25 25 25 26 26 26 27 26 25 25 25 25 25 24 24 24 24 24 24 24 23 23 23 22 22 21 21 20 20 20 20
26 26 26 26 27 27 26 25 25 25 26 26 26 27 27 27 27 28 27 27 28 27 27 27 27 27 26 25 25 25 25 25 25 24 24 24 24 23 22 21 21 20 20 20
27 27 28 28 28 28 27 25 26 26 27 26 26 27 28 28 29 29 28 28 28 28 28 28 28 28 27 27 27 26 25 25 25 25 24 24 24 23 22 21 21 21 20 20
27 28 29 29 29 29 28 28 27 27 27 27 27 28 29 29 30 30 30 30 29 28 29 29 29 29 29 28 28 27 26 25 25 26 25 24 24 23 22 22 22 21 21 21
28 29 29 29 30 30 28 27 28 28 28 28 28 29 30 30 30 30 31 31 30 30 29 30 30 30 29 29 28 27 27 26 26 26 25 24 24 23 23 22 22 21 21 21
28 28 28 28 29 29 28 28 29 29 29 29 29 30 30 30 31 30 31 31 31 31 30 30 30 30 29 29 28 28 27 26 26 26 25 25 24 23 23 23 22 22 21 21
29 29 29 28 28 29 28 29 30 30 30 30 30 30 31 31 31 31 31 31 31 31 31 30 30 30 30 29 28 28 28 27 26 26 25 25 25 24 23 23 23 23 23 22
29 30 30 30 29 30 29 29 29 30 31 31 30 30 32 32 32 32 31 31 31 30 30 30 30 29 29 29 28 28 28 27 26 26 26 26 25 25 24 24 24 24 24 24
26 28 30 30 30 31 30 30 31 31 31 32 32 32 32 32 32 32 31 31 30 31 31 30 30 29 29 29 28 28 28 27 26 26 26 26 26 26 25 25 24 25 25 25

GEFSCGP_500_meanwind_246.txt.gz
Wind_Speed
9 8 7 7 7 7 7 7 6 5 6 6 6 6 5 6 6 5 6 6 6 6 7 7 6 6 7 7 8 8 8 7 7 8 8 8 8 8 7 7 7 7 7 8
9 9 8 8 8 8 7 6 6 5 5 6 6 6 6 5 5 6 6 6 6 7 7 7 7 7 7 7 8 8 8 8 8 8 9 9 9 8 7 7 7 7 8 7
9 9 9 9 9 9 8 7 6 6 5 5 6 6 6 6 6 6 6 7 6 7 7 7 7 7 8 8 8 9 9 9 9 9 10 10 9 9 8 8 8 8 8 7
10 9 9 9 9 9 9 8 7 7 7 7 7 6 6 6 6 6 6 6 7 8 8 8 8 9 9 9 9 9 9 9 10 10 9 9 9 8 9 9 8 8 8 8
10 10 10 9 9 10 9 9 9 9 9 8 8 8 6 7 6 7 7 7 7 8 9 9 9 9 10 10 10 10 10 10 10 9 10 10 10 10 9 9 9 9 9 9
10 10 10 10 10 10 10 10 10 10 10 9 9 9 6 6 7 8 7 8 8 9 9 10 10 11 10 10 11 10 10 11 10 10 10 11 11 10 10 10 10 10 10 10
11 11 11 10 10 11 11 11 12 12 11 10 10 10 7 7 7 7 8 8 9 9 9 10 11 11 12 11 11 10 11 11 11 12 12 11 11 12 11 11 11 11 10 10
12 13 12 12 11 11 11 12 12 13 13 12 12 10 9 8 7 8 8 9 10 10 10 11 12 12 12 12 11 11 12 12 12 13 13 13 13 13 13 12 12 12 11 12
12 12 12 12 12 12 12 12 12 13 13 13 12 12 11 9 9 9 10 10 11 11 11 12 12 12 12 12 12 12 13 13 13 14 13 13 13 14 14 13 13 13 13 13
13 13 13 13 14 14 13 13 14 15 15 15 14 13 12 11 10 10 10 11 11 12 13 13 13 13 13 13 14 14 14 14 15 15 14 14 14 14 14 14 14 14 14 15
14 15 14 15 15 14 14 14 15 16 16 16 16 14 13 13 12 12 12 12 13 13 14 14 14 14 14 15 15 15 15 15 15 15 15 14 14 15 15 15 15 15 15 15
16 16 16 16 15 15 16 15 16 17 16 17 17 15 15 15 15 14 13 13 14 14 14 14 14 15 15 16 16 16 16 16 16 16 16 16 15 15 16 16 16 16 16 16
17 18 17 17 17 17 17 17 17 18 18 19 19 17 16 17 16 16 15 15 15 15 15 15 16 16 16 16 17 17 17 18 18 18 17 16 16 17 17 17 17 17 17 16
19 20 19 19 18 18 18 18 18 19 20 20 20 19 17 17 17 17 17 17 16 16 16 17 17 17 17 17 18 18 18 18 19 19 18 18 17 18 18 18 18 18 18 18
21 22 21 20 19 20 20 19 20 20 21 21 21 20 19 19 19 18 19 19 18 18 18 18 18 18 19 19 19 19 19 19 19 19 19 19 19 18 18 18 18 18 18 18
23 23 23 22 21 22 22 21 22 22 22 22 22 21 20 21 21 21 21 21 20 20 20 20 20 20 20 20 20 20 20 20 20 20 20 20 20 20 20 19 19 19 19 19
24 25 25 25 24 24 24 22 23 23 23 23 22 21 22 22 22 23 23 23 23 22 22 23 23 22 22 22 22 21 21 21 21 21 21 22 22 22 22 21 21 20 20 20
25 26 26 26 27 28 25 24 24 24 24 24 23 23 23 24 24 25 25 25 25 25 24 24 24 24 24 23 23 23 22 22 23 23 23 23 23 23 23 22 22 21 21 20
25 26 27 27 28 29 27 25 25 25 25 25 25 25 25 25 26 26 27 27 27 27 26 25 25 25 25 25 24 25 24 24 24 24 23 24 23 23 23 22 22 21 21 21
26 27 28 29 30 30 27 26 25 26 26 26 27 27 26 26 27 27 27 28 27 27 27 27 26 26 26 26 25 25 26 25 25 24 24 24 24 23 23 23 22 22 22 21
27 28 29 30 30 30 27 27 27 27 27 27 28 28 28 28 28 28 28 29 29 28 28 28 28 27 27 27 27 26 26 27 26 25 24 24 24 24 23 23 23 23 22 22
26 27 28 29 30 29 27 26 27 27 28 28 29 29 29 29 29 29 29 29 29 29 29 29 29 29 29 29 29 28 28 28 28 26 25 25 26 25 24 24 24 24 24 24
26 26 27 28 29 28 27 27 27 28 28 29 29 29 29 29 29 30 30 31 30 30 30 30 29 29 29 30 30 30 30 29 28 27 26 26 27 26 25 25 25 25 25 24
26 26 27 27 28 28 28 29 28 29 29 29 29 29 29 29 30 30 30 31 31 31 31 31 30 30 30 30 31 31 30 29 28 28 27 26 27 26 26 25 25 24 25 25
24 25 26 27 27 28 28 29 29 28 28 29 29 29 30 30 30 31 31 31 32 32 32 31 30 31 31 31 31 30 30 29 29 28 27 27 27 27 27 26 26 25 25 25
25 25 26 26 27 27 27 28 28 28 29 29 29 29 30 30 31 32 33 33 32 32 32 31 30 30 30 30 30 30 30 29 29 29 28 27 27 27 27 27 27 26 26 26

GEFSCGP_500_meanwind_252.txt.gz
Wind_Speed
10 10 9 9 9 9 8 8 8 8 9 9 9 9 8 8 9 9 9 9 9 8 8 8 8 8 8 8 8 8 8 8 8 8 8 7 8 8 8 8 8 8 8 8
10 10 10 10 10 9 9 8 8 8 9 9 9 9 9 9 8 9 9 10 9 9 9 8 9 9 8 8 8 8 8 8 9 8 8 8 8 9 8 8 9 9 8 8
11 11 11 11 10 10 9 9 9 9 9 9 9 8 8 9 9 9 9 10 10 10 9 9 9 9 9 9 8 8 8 8 9 9 9 9 9 9 8 8 9 9 9 9
11 11 11 11 10 10 10 10 9 9 9 9 8 8 8 8 9 9 10 10 10 10 10 10 10 10 10 10 9 9 9 10 10 10 10 10 10 10 10 10 9 9 9 9
11 11 11 11 11 10 10 11 10 10 10 9 9 9 8 9 9 10 10 10 10 10 10 9 10 10 10 10 10 10 10 10 11 11 10 11 10 11 11 11 10 9 10 9
12 12 12 11 11 11 11 11 11 11 11 10 10 10 8 9 9 10 10 11 11 11 11 11 10 11 11 11 11 11 11 11 12 12 11 12 12 11 11 11 11 11 11 11
12 13 12 12 12 12 11 12 12 12 11 10 10 10 9 9 10 10 10 11 11 12 12 12 12 12 12 12 12 12 12 12 12 12 12 13 13 12 12 12 12 12 12 12
13 13 13 13 13 13 13 13 13 14 13 11 11 11 10 11 11 11 11 12 12 13 13 13 13 13 13 13 13 13 13 13 14 13 14 14 14 14 13 13 13 12 13 13
14 14 14 15 14 15 14 14 14 15 15 14 13 11 11 12 12 12 12 13 13 14 14 14 14 14 14 14 14 14 14 14 14 15 15 15 15 15 15 15 14 14 14 14
16 15 15 15 16 15 15 15 15 16 16 16 14 13 12 12 13 13 13 13 13 14 14 14 15 15 15 15 15 15 15 15 15 15 15 15 16 16 16 16 16 15 15 15
17 17 16 17 17 16 16 17 17 17 18 17 16 14 14 14 14 15 14 14 14 14 15 15 15 15 15 15 15 16 16 16 16 16 16 16 17 17 16 16 16 15 16 17
18 19 18 18 18 18 18 17 17 18 19 19 18 15 15 15 15 15 15 15 15 15 16 15 15 16 15 15 16 16 17 17 18 17 17 17 18 18 17 17 17 17 17 17
19 19 19 19 19 18 18 18 18 19 19 19 19 17 16 16 16 16 16 16 16 16 17 16 16 17 17 17 17 17 18 18 18 18 19 19 19 19 18 18 18 18 18 18
20 21 21 20 19 18 19 19 19 20 20 20 20 18 17 18 18 18 18 18 18 18 18 18 18 18 18 18 18 19 19 18 19 19 19 20 20 19 19 19 19 20 19 19
21 21 21 21 21 20 20 21 21 21 21 22 21 20 19 19 19 19 20 20 19 19 19 19 19 19 19 19 20 20 20 20 21 20 20 21 21 20 19 19 19 20 19 19
22 22 22 22 22 23 23 22 23 23 23 23 23 22 20 20 21 21 21 21 21 21 20 20 21 20 21 21 21 21 21 21 21 21 21 21 20 20 19 19 20 20 20 20
23 24 24 24 24 25 24 23 24 25 24 25 25 24 23 23 22 23 22 22 22 22 22 22 22 22 22 22 22 22 21 21 21 21 21 21 21 21 20 21 21 21 21 21
24 25 26 26 26 27 25 24 24 26 26 26 27 26 26 25 25 24 24 24 24 24 24 23 23 23 23 23 23 23 23 23 22 23 23 22 22 22 21 21 22 22 22 22
26 26 27 28 28 28 27 26 25 26 27 27 28 27 27 27 27 26 26 26 26 26 25 25 25 25 25 25 25 25 25 24 24 24 24 23 23 22 22 22 22 22 22 23
27 27 28 28 29 29 27 27 27 28 29 28 28 29 29 28 28 27 28 28 28 28 27 27 26 26 26 26 26 26 26 26 25 25 24 24 23 23 23 23 24 24 24 24
27 28 29 29 30 30 29 28 28 29 29 29 29 29 29 29 29 29 29 29 30 30 29 29 28 28 27 27 27 27 27 27 27 26 26 25 24 24 24 25 25 25 25 26
26 28 29 30 31 30 29 30 30 30 29 29 29 29 29 29 30 30 30 30 30 30 31 30 30 30 29 29 29 28 28 28 28 28 27 26 26 25 25 26 26 26 26 26
26 27 28 29 30 30 31 31 30 30 30 30 30 30 30 31 31 31 30 30 30 31 31 32 32 32 31 31 31 30 29 29 29 29 29 28 28 28 27 27 27 27 26 26
26 26 27 28 29 30 31 30 29 30 31 31 31 31 31 32 33 33 32 32 32 32 32 33 33 33 32 32 33 32 31 31 31 30 30 30 30 29 29 29 28 28 28 28
25 26 27 28 28 30 30 31 31 31 31 31 32 32 31 32 32 32 33 33 33 33 33 33 33 33 33 33 33 33 33 32 32 31 32 32 32 31 31 30 29 29 29 29
25 26 27 27 28 29 30 31 31 31 31 32 32 31 32 32 32 33 33 32 33 33 33 32 32 32 32 32 32 33 34 33 33 32 33 33 33 32 32 31 30 30 30 30

GEFSCGP_500_meanwind_258.txt.gz
Wind_Speed
9 8 8 8 8 9 9 8 8 8 8 9 9 9 9 9 9 9 9 9 9 10 10 10 10 11 10 10 10 9 9 8 8 8 8 8 8 9 10 10 9 9 9 9
9 9 9 8 8 8 8 8 9 9 8 8 8 8 9 8 8 8 9 9 9 9 9 10 10 10 10 10 10 10 9 9 9 9 9 9 9 9 9 9 9 9 10 9
10 10 9 9 8 8 8 8 9 9 8 9 8 8 8 8 9 9 9 9 9 9 9 9 10 10 10 10 10 10 9 9 10 10 10 10 10 11 11 10 9 10 10 10
11 10 10 10 10 9 9 9 9 9 9 9 9 8 9 9 9 9 9 9 9 9 9 9 10 10 11 11 10 10 10 10 10 11 11 10 11 11 11 11 10 10 10 11
10 10 10 10 9 10 10 10 9 9 9 9 9 9 9 9 9 9 9 9 9 9 9 10 10 10 11 11 11 11 11 11 11 11 11 11 12 12 12 12 12 11 11 11
10 10 10 9 10 10 10 10 10 10 10 10 9 10 9 9 9 10 10 9 9 10 10 10 11 11 11 12 12 11 11 11 11 12 12 12 13 13 13 13 13 12 12 12
11 11 10 10 10 11 11 10 10 10 10 11 10 10 10 9 9 10 10 10 10 11 11 10 11 12 12 12 12 12 12 12 12 12 12 13 13 13 13 13 12 12 13 12
12 12 12 11 11 11 11 12 11 12 12 11 11 11 11 10 10 10 11 11 11 11 12 12 12 12 12 13 13 14 14 14 14 13 13 13 13 13 13 13 13 13 13 13
13 13 13 13 13 13 13 13 13 14 14 13 12 11 11 11 11 11 12 12 12 12 13 13 13 13 13 14 14 14 14 14 14 15 14 14 14 14 15 14 14 14 15 14
14 14 15 14 14 14 14 14 14 14 14 14 13 12 12 13 13 13 13 13 13 14 14 14 15 14 14 15 15 15 16 15 16 16 16 16 15 16 16 16 15 15 15 15
14 15 15 16 16 15 15 15 15 16 16 15 15 15 14 14 14 15 15 15 15 15 15 15 15 16 16 16 16 16 16 16 16 16 16 16 16 16 17 17 16 16 16 16
14 15 16 16 16 16 16 16 16 16 16 16 17 17 15 15 15 16 16 16 16 16 16 16 16 17 17 18 17 17 17 17 17 17 18 18 17 17 17 17 17 17 17 17
15 16 16 17 17 17 17 17 17 18 18 18 18 18 16 17 17 17 17 17 17 17 17 17 17 18 18 18 18 18 17 17 18 18 18 18 18 18 18 18 17 17 18 18
17 17 17 17 18 18 18 18 18 19 20 20 19 19 18 18 18 18 18 18 18 18 19 19 18 19 19 20 19 19 18 18 18 19 19 19 19 19 19 19 18 18 18 18
18 18 18 18 19 19 20 20 20 21 21 22 21 20 19 19 19 20 20 20 20 20 20 20 20 20 20 20 21 20 20 20 20 20 20 20 20 19 19 19 19 19 19 19
19 19 19 19 20 20 21 21 21 21 22 23 22 21 21 21 21 21 21 22 22 22 22 22 21 21 21 21 21 22 21 21 21 22 22 21 21 21 21 20 20 20 19 19
20 21 21 21 21 22 22 21 22 22 23 23 24 23 22 23 23 23 23 23 23 23 24 23 23 23 22 22 22 23 22 22 22 23 23 22 23 22 21 21 21 21 20 20
21 21 22 22 23 24 24 23 23 24 24 24 25 24 24 24 24 24 24 24 24 25 25 25 25 24 24 24 24 24 24 24 24 23 23 23 23 23 22 22 22 22 22 22
21 22 23 24 24 25 24 24 24 25 25 25 25 25 25 25 26 25 26 26 26 26 26 26 26 26 26 26 26 26 25 25 25 25 25 24 24 23 24 23 23 23 23 23
23 23 24 25 25 26 25 24 25 25 25 25 26 26 26 26 27 27 27 27 27 27 27 27 27 27 27 27 27 27 27 26 26 26 26 26 25 25 25 25 25 25 25 24
24 24 25 25 26 26 25 25 25 25 25 25 25 26 27 27 27 27 27 27 28 28 28 28 28 28 28 28 28 28 28 28 28 28 27 27 27 27 27 27 27 27 26 26
25 25 26 26 26 26 26 26 26 26 27 26 26 26 27 27 27 27 27 27 28 28 29 29 29 29 30 29 29 29 29 29 30 30 29 29 29 29 28 28 28 28 28 28
25 25 26 26 26 26 27 28 28 28 28 28 27 27 27 27 27 27 28 28 28 29 30 30 30 30 31 31 31 30 31 30 30 31 31 30 30 30 29 29 29 29 29 30
25 26 26 26 26 27 28 28 28 29 29 29 29 28 28 28 28 28 28 28 29 30 30 30 31 31 32 32 32 31 31 31 31 31 31 31 32 31 31 31 31 31 31 31
26 26 27 27 27 28 28 28 29 29 29 30 29 29 29 29 29 29 29 29 30 30 31 31 31 32 32 32 33 33 32 32 32 31 31 32 32 32 32 32 32 32 32 32
26 26 27 27 27 28 28 28 29 30 29 29 30 30 30 30 29 30 30 30 31 31 31 31 31 32 32 32 32 33 33 33 33 33 32 32 33 33 34 34 34 35 34 34

GEFSCGP_500_meanwind_264.txt.gz
Wind_Speed
11 11 10 10 11 11 11 11 11 11 11 12 11 11 12 12 12 13 12 12 12 12 13 13 13 12 13 13 13 13 13 12 12 12 11 10 10 10 10 10 11 11 10 9
11 11 11 11 11 11 11 11 11 12 11 12 12 11 12 12 12 12 12 12 12 11 12 12 11 12 11 12 12 12 12 12 12 12 11 11 10 10 11 11 10 10 10 10
11 12 11 11 11 11 11 11 11 11 10 11 11 11 11 11 12 12 12 12 11 11 11 11 11 11 11 11 11 11 11 12 11 11 11 11 11 11 11 11 11 10 10 10
11 12 12 12 12 12 11 11 10 10 10 10 10 11 11 12 12 12 12 12 11 11 11 11 10 10 11 11 11 11 11 11 11 11 11 11 11 11 11 11 11 11 11 11
11 12 11 11 11 11 11 10 10 11 11 11 11 11 11 12 12 12 12 12 12 12 12 12 11 11 11 11 11 11 11 11 11 11 11 11 11 11 11 11 12 11 11 11
12 13 12 12 12 11 11 11 10 11 11 11 11 12 11 12 12 12 12 12 12 12 12 12 12 12 12 11 12 12 12 12 12 12 12 12 12 12 12 12 12 12 12 12
13 13 13 13 12 12 11 11 10 9 10 10 10 12 13 13 13 13 13 13 13 13 13 13 13 12 12 12 12 13 13 12 12 12 13 13 13 13 13 13 13 13 13 12
13 14 13 13 13 12 12 12 11 10 10 10 11 12 14 13 13 14 14 14 14 14 14 14 14 13 13 13 13 14 14 13 13 14 14 14 14 14 14 14 14 14 14 13
13 14 13 13 13 14 13 13 13 13 13 13 12 13 15 15 15 15 15 15 15 14 14 15 15 14 14 14 14 14 14 14 14 15 15 15 15 15 15 15 15 15 15 14
14 14 14 14 14 15 15 15 14 16 16 15 13 14 15 16 16 16 16 16 16 15 15 15 15 15 15 15 15 14 14 14 15 15 16 16 16 16 16 15 15 15 14 14
15 15 15 14 15 14 15 16 16 17 17 17 15 15 17 18 17 17 17 17 17 17 16 16 16 17 17 17 17 16 16 16 17 17 17 17 17 17 17 16 16 15 15 15
15 16 16 15 15 15 15 16 17 18 18 17 17 17 18 19 18 19 19 18 18 18 18 18 18 18 18 18 18 18 18 18 18 18 18 18 18 18 17 17 16 16 16 16
17 17 17 16 16 16 16 17 18 19 19 19 19 19 18 20 21 21 21 20 20 19 19 19 18 19 19 19 19 19 19 19 19 20 20 19 19 18 18 17 17 17 17 17
17 18 18 17 17 17 17 17 18 19 20 21 21 21 20 21 22 23 23 21 21 20 20 20 20 20 20 20 19 19 19 20 20 20 20 20 20 19 18 18 18 18 18 18
18 18 19 19 19 20 19 19 19 20 21 22 22 22 23 23 24 24 24 23 22 22 21 21 21 21 21 21 20 20 20 20 20 20 20 20 20 19 19 19 19 19 19 19
19 19 19 20 20 21 22 21 22 22 22 23 24 24 25 24 25 26 25 25 24 23 23 23 23 23 23 23 22 22 22 22 22 22 21 21 20 20 20 20 21 21 21 21
20 20 21 21 21 23 23 22 23 24 24 25 25 25 26 26 26 26 27 27 26 25 25 25 25 25 25 25 24 24 24 24 24 24 23 23 22 23 22 22 23 23 24 23
21 21 22 22 23 25 23 23 24 25 25 25 26 26 26 27 28 27 27 27 28 27 26 27 27 26 26 26 26 26 26 26 26 25 25 25 25 25 24 24 25 25 25 25
21 22 22 23 24 25 25 24 24 25 25 26 26 27 27 27 28 29 29 29 28 28 28 28 29 28 27 27 28 28 28 28 27 27 27 27 27 27 27 26 26 26 26 26
23 23 24 24 25 26 25 25 25 26 27 27 27 26 27 27 29 29 29 29 29 28 29 30 30 30 29 29 29 29 29 29 29 29 29 29 28 28 28 28 28 27 26 26
23 23 24 25 26 26 26 26 26 27 28 28 28 27 27 27 28 29 30 30 30 30 30 31 31 31 31 30 30 30 30 30 30 31 31 31 30 30 29 29 29 29 28 28
24 24 24 25 26 27 27 27 28 28 29 29 30 29 29 29 29 29 30 30 31 31 31 31 31 31 32 31 31 31 31 31 32 32 32 32 32 32 31 31 30 30 30 30
25 25 26 27 27 27 27 28 29 30 31 31 31 30 30 30 30 31 31 31 32 32 32 32 32 32 32 32 32 32 32 32 33 33 32 32 32 32 32 32 32 32 32 32
25 26 27 28 27 28 29 29 30 30 31 32 32 32 32 32 32 32 32 33 32 32 32 32 32 32 32 33 34 33 33 33 34 34 34 33 33 32 32 33 33 33 33 33
27 27 28 29 29 30 30 30 31 31 32 33 33 33 33 33 33 34 34 33 32 32 33 33 34 33 33 34 35 34 35 35 35 35 35 35 34 34 34 34 34 33 34 34
28 29 29 30 30 31 31 32 33 33 33 33 33 33 33 34 34 34 33 34 34 33 33 34 35 35 35 35 35 35 36 36 37 37 37 36 36 36 35 35 35 34 34 35

GEFSCGP_500_meanwind_270.txt.gz
Wind_Speed
11 11 11 11 11 11 11 11 11 10 9 9 9 9 9 9 8 8 9 9 9 10 10 10 9 9 10 10 11 11 10 9 9 9 9 9 9 9 9 9 9 8 8 8
11 11 11 11 11 11 12 11 11 10 10 9 9 9 9 10 9 9 9 9 9 9 9 9 9 9 9 9 10 10 9 9 9 10 10 9 10 10 10 10 9 9 9 8
11 10 11 11 11 11 11 11 10 10 10 10 10 9 9 9 9 8 8 8 8 8 8 8 8 8 8 8 8 8 8 8 9 9 9 9 9 9 9 9 9 9 9 9
10 10 10 10 11 11 10 10 10 11 10 10 10 9 9 9 9 8 8 8 8 7 7 7 7 7 8 8 8 8 8 8 8 8 8 9 9 9 9 10 10 10 9 10
10 10 10 10 10 11 11 11 11 10 10 10 10 10 8 8 9 8 8 7 7 7 7 7 8 8 8 9 9 9 9 8 8 8 9 9 9 9 9 10 10 10 10 10
10 10 11 11 11 11 12 12 12 11 11 11 10 10 9 8 8 8 7 7 7 7 8 8 8 8 9 9 9 9 9 9 9 9 9 9 9 9 10 10 10 9 9 9
10 10 10 11 12 11 12 13 13 12 12 11 11 11 10 9 9 8 8 8 8 8 9 9 9 9 9 9 9 10 10 10 10 10 10 10 10 10 10 10 10 10 10 10
11 10 10 11 11 12 12 13 13 13 13 12 13 13 11 10 10 10 10 9 9 9 10 10 9 10 10 11 11 11 11 11 11 12 12 11 12 11 11 11 10 11 11 11
11 10 10 10 11 12 12 13 14 15 15 15 14 14 13 12 12 11 11 11 10 10 11 11 11 11 11 11 12 12 12 12 12 12 12 12 12 12 12 12 12 12 12 12
12 12 11 11 12 12 12 13 14 15 16 16 15 15 13 12 12 12 12 12 11 11 11 11 12 12 12 12 12 12 12 12 12 12 12 13 13 13 13 13 13 13 13 12
13 13 12 12 11 12 13 14 15 16 17 16 16 15 14 13 13 14 13 13 13 13 13 13 13 14 14 14 14 14 14 13 13 12 13 13 13 13 14 13 14 14 14 14
14 14 13 12 12 14 14 15 15 16 17 17 18 16 15 15 15 15 15 14 14 15 14 14 15 15 15 15 15 15 15 15 15 15 14 14 14 14 14 14 15 15 15 16
15 15 15 14 14 14 15 16 16 17 17 17 17 17 16 17 16 17 17 16 16 15 16 16 16 16 16 16 17 17 17 16 17 17 17 16 16 16 16 16 16 16 17 17
16 17 17 17 16 16 16 16 17 18 18 19 18 18 18 19 19 19 19 18 17 17 17 17 17 17 18 18 18 18 19 18 18 18 18 18 18 18 18 18 18 18 18 18
16 17 18 18 18 18 18 17 17 19 19 20 20 20 20 20 21 21 21 21 20 20 20 20 19 20 20 20 21 21 21 21 20 20 20 20 19 20 20 20 20 20 20 20
17 18 18 18 19 20 19 18 18 19 20 21 21 21 21 21 22 22 23 23 23 22 22 22 22 22 22 22 22 22 22 22 22 22 22 22 22 22 22 22 23 22 22 22
18 19 19 19 19 20 20 19 19 20 21 21 22 22 21 22 23 23 23 24 24 24 24 24 24 24 24 24 24 23 24 24 23 23 23 24 24 24 24 24 24 24 24 24
19 19 20 20 20 22 20 20 20 21 21 22 23 23 23 23 24 25 25 26 25 25 26 26 26 26 25 25 25 25 26 25 25 25 25 25 25 25 25 25 25 25 25 26
20 20 21 21 21 21 20 20 21 22 22 22 23 24 24 24 25 26 26 27 27 27 27 28 28 27 27 27 27 27 27 27 27 27 28 27 27 27 26 26 26 27 27 27
20 20 21 22 22 21 20 21 21 23 23 23 23 24 25 26 26 26 27 27 27 28 29 29 28 28 28 29 29 29 29 29 28 29 29 29 29 29 29 29 29 29 29 29
20 20 21 21 22 21 21 21 21 23 23 23 24 24 25 25 26 26 27 28 28 29 29 30 30 30 30 30 30 30 30 30 30 30 30 30 31 31 31 31 31 30 31 30
20 20 21 22 22 22 22 22 22 23 24 24 25 26 26 26 26 27 27 28 28 28 29 30 30 31 31 31 31 31 31 31 31 31 31 31 32 31 32 32 32 32 32 31
21 21 22 22 23 23 23 23 23 24 25 26 26 27 27 27 27 27 28 28 29 29 29 29 30 31 30 31 31 31 32 32 33 33 33 33 33 32 32 32 33 33 33 32
22 22 23 23 23 24 24 25 25 26 26 26 26 27 28 29 29 29 29 29 30 30 30 30 30 31 31 31 31 32 32 32 33 33 33 33 34 33 32 32 33 33 33 34
22 23 23 24 24 24 25 26 27 27 28 28 28 28 28 29 30 30 30 30 31 31 31 31 31 31 32 32 32 33 32 32 33 32 33 33 33 33 33 34 34 34 34 34
23 24 25 25 25 27 27 28 29 29 29 29 29 29 30 30 31 31 31 31 31 31 31 32 32 32 32 32 33 33 33 33 33 33 33 32 33 33 34 34 34 35 35 35